This is the latest recevied weather packets stored in our database for station/object DL6DJ-15. If no packets are shown the sender has not sent any weather packets the latest 10 day(s).
| Time | Temp. | Humidity | Pressure | Rain* | Wind** | Luminosity | Snow |
|---|---|---|---|---|---|---|---|
| 1777749345 | 13.33° C | 49% | 1018.9 hPa | - | - | - | - |
| 1777749044 | 13.89° C | 48% | 1018.9 hPa | - | - | - | - |
| 1777748744 | 13.89° C | 48% | 1018.8 hPa | - | - | - | - |
| 1777748444 | 14.44° C | 47% | 1018.9 hPa | - | - | - | - |
| 1777748143 | 15° C | 45% | 1018.8 hPa | - | - | - | - |
| 1777747843 | 15° C | 45% | 1018.8 hPa | - | - | - | - |
| 1777747543 | 15° C | 45% | 1018.8 hPa | - | - | - | - |
| 1777746942 | 16.11° C | 44% | 1018.7 hPa | - | - | - | - |
| 1777746642 | 16.67° C | 43% | 1018.7 hPa | - | - | - | - |
| 1777746341 | 16.67° C | 43% | 1018.7 hPa | - | - | - | - |
| 1777746040 | 17.78° C | 43% | 1018.7 hPa | - | - | - | - |
| 1777745740 | 17.78° C | 41% | 1018.7 hPa | - | - | - | - |
| 1777745440 | 18.33° C | 42% | 1018.6 hPa | - | - | - | - |
| 1777745139 | 18.89° C | 40% | 1018.6 hPa | - | - | - | - |
| 1777744839 | 19.44° C | 40% | 1018.6 hPa | - | - | - | - |
| 1777744538 | 20° C | 37% | 1018.7 hPa | - | - | - | - |
| 1777743938 | 21.11° C | 31% | 1018.7 hPa | - | - | - | - |
| 1777743337 | 21.67° C | 28% | 1018.8 hPa | - | - | - | - |
| 1777743036 | 22.22° C | 29% | 1018.9 hPa | - | - | - | - |
| 1777742736 | 22.22° C | 27% | 1018.9 hPa | - | - | - | - |
| 1777742436 | 22.22° C | 28% | 1018.9 hPa | - | - | - | - |
| 1777742135 | 22.78° C | 27% | 1018.9 hPa | - | - | - | - |
| 1777741835 | 22.78° C | 26% | 1019 hPa | - | - | - | - |
| 1777741234 | 23.33° C | 25% | 1019 hPa | - | - | - | - |
| 1777740934 | 23.33° C | 22% | 1019 hPa | - | - | - | - |
* Rain since midnight (hover to see other rain measurements)
** Current wind speed in m/s (hover to see current wind gust speed)